Regional Weather Roundup
Issued by NWS

Home | Current Version | Previous Version | Graphics & Text | Print | Product List | Glossary On
Versions: 1 2 3 4 5 6 7 8 9 10 11 12 13 14 15 16 17 18 19 20 21 22 23 24 25 26 27 28 29 30 31 32 33 34 35 36 37 38 39 40 41 42 43 44 45 46 47 48 49 50
000
ASUS45 KCYS 221610
RWRWY

WYOMING REGIONAL WEATHER ROUNDUP
NATIONAL WEATHER SERVICE CHEYENNE WY
1000 AM MDT FRI AUG 22 2014

NOTE:  "FAIR" INDICATES FEW OR NO CLOUDS BELOW 12,000 FEET
WITH NO SIGNIFICANT WEATHER AND/OR OBSTRUCTIONS TO VISIBILITY.

WYZ001-221700-
YELLOWSTONE NATIONAL PARK

CITY           SKY/WX    TMP DP  RH WIND       PRES   REMARKS
LK YELLOWSTONE   N/A     47  43  86 CALM      30.23S
W YELLOWSTONE  NOT AVBL

$$
WYZ002>013-054>058-071-098>099-221700-
NORTHERN WYOMING

CITY           SKY/WX    TMP DP  RH WIND       PRES   REMARKS
JACKSON        NOT AVBL
CODY           CLOUDY    55  52  88 NE5       30.12S
GREYBULL       PTSUNNY   61  55  81 VRB5      30.07F
WORLAND        MOSUNNY   61  52  72 VRB5      30.08F
SHERIDAN       CLOUDY    59  56  89 NE6       30.09S
BUFFALO        CLOUDY    61  54  77 SE12      30.12S
GILLETTE       PTSUNNY   65  54  67 SE7       30.10S
HULETT         CLOUDY    64  55  72 MISG      30.12
NEWCASTLE      FAIR      66  54  63 MISG      30.11

$$
WYZ014>020-022>026-101>103-221700-
CENTRAL WYOMING

CITY           SKY/WX    TMP DP  RH WIND       PRES   REMARKS
BIG PINEY      CLOUDY    52  44  74 CALM      30.21S
PINEDALE       PTSUNNY   52  43  71 CALM      30.19S
DUBOIS         CLOUDY    50  43  76 CALM      30.17F
LANDER         LGT RAIN  60  51  72 N5        30.11F
RIVERTON       PTSUNNY   59  51  75 W5        30.12F
CASPER         PTSUNNY   63  52  67 E9        30.13F
DOUGLAS        PTSUNNY   63  53  70 S5        30.15F

$$
WYZ021-027>030-104>119-221700-
SOUTHERN WYOMING

CITY           SKY/WX    TMP DP  RH WIND       PRES   REMARKS
EVANSTON       PTSUNNY   55  48  77 N6        30.18F
KEMMERER       PTSUNNY   54  43  66 NE9       30.20F
FORT BRIDGER   PTSUNNY   56  49  78 N3        30.22S
ROCK SPRINGS   MOSUNNY   62  44  51 NE6       30.17F
DIXON          FAIR      65  48  55 CALM      30.20F
RAWLINS        PTSUNNY   58  48  69 CALM      30.20F
SARATOGA       FAIR      63  46  55 MISG      30.21S
LARAMIE        PTSUNNY   61  45  55 S18       30.23F
CHEYENNE       PTSUNNY   64  53  67 SW6       30.21F
TORRINGTON     CLOUDY    65  55  70 N8        30.11F
PINE BLUFFS    FAIR      66  55  68 SW3       30.17F

$$


USA.gov is the U.S. government's official web portal to all federal, state and local government web resources and services.